• Member Statistics

    15,532
    Total Members
    7,904
    Most Online
    Rowdy2x
    Newest Member
    Rowdy2x
    Joined
bluewave

July 2019 General Discussions & Observations Thread

Recommended Posts

2 minutes ago, SACRUS said:

We'll see if Judy Collins Clouds got in the way (of 100) plays later today, but certainly on our way if they dont. 

 

IS there anyone aware if the caching of live animated loops is a site issue or user (browser issue)  It seems to affect each thread where you can only post one loop then subsequent loops are the wrong times or past day.

 

Most of those convective debris should dissipate in my opinion.

  • Like 1

Share this post


Link to post
Share on other sites
CITY           SKY/WX    TMP DP  RH WIND       PRES   REMARKS
Central Park   FAIR      87  73  62 MISG        N/A  HX  94
Bronx Lehman C   N/A     90  73  58 W5          N/A  HX  98
LaGuardia Arpt PTSUNNY   90  72  55 NW5       29.84F HX  97
Queens College   N/A     90  73  58 W6          N/A  HX  98
Kennedy Intl   FAIR      90  78  68 SW10      29.86F HX 104
Breezy Point     N/A     82 N/A N/A SW6         N/A
Brooklyn Coll    N/A     90  73  58 W6          N/A  HX  98
Staten Island    N/A     90  73  58 SW3         N/A  HX  98
Newark/Liberty PTSUNNY   91  74  57 W6        29.85F HX 100
Teterboro      FAIR      91  74  57 VRB6      29.84F HX 100
$$

NYZ177-179-078>081-201500-
Long Island New York

CITY           SKY/WX    TMP DP  RH WIND       PRES   REMARKS
Jones Beach      N/A     81 N/A N/A W8          N/A
Wantagh          N/A     90  75  62 W7          N/A  HX 100
Hempstead        N/A     90  75  62 NE1       29.89F HX 100
Matinecock Pt    N/A     84 N/A N/A W6          N/A
Farmingdale    FAIR      88  73  61 W10       29.85F HX  95
MacArthur/ISP  PTSUNNY   90  75  61 NW8       29.85F HX 100
Stony Brook      N/A     84  73  70 W6          N/A  HX  91
Shirley        FAIR      89  73  59 W8        29.85F HX  97
Mt Sinai Harb    N/A    N/A N/A N/A W6          N/A
Westhampton    FAIR      88  74  63 W10       29.86F HX  96
East Hampton   FAIR      86  73  64 W6        29.84F HX  93
Southold         N/A     84  72  65 W6          N/A
Montauk          N/A     84  74  71 W6        29.85F HX  91
$$

NYZ052-065-067-201500-
Hudson Valley

CITY           SKY/WX    TMP DP  RH WIND       PRES   REMARKS
White Plains   FAIR      86  73  65 NW8       29.86F HX  93
Larchmont Harb   N/A     84 N/A N/A W5          N/A
Croton On Huds   N/A     88 N/A N/A NW5         N/A
Somers           N/A     86  73  66 W3          N/A  HX  93
Brewster         N/A     84  73  70 NW5         N/A  HX  91
Newburgh       SUNNY     84  75  74 W7        29.87F HX  92
Montgomery     FAIR      85  73  67 SW7       29.85F HX  91
Otisville        N/A     84  72  65 W6          N/A
Warwick          N/A     84  75  74 W7          N/A  HX  92
Suffern          N/A     86  73  66 W3          N/A  HX  93
Poughkeepsie   FAIR      86  73  65 SW6       29.83F HX  93
Albany         PTSUNNY   86  74  67 VRB6      29.84F HX  94
$$

NJZ001-105-106-008-010-013-015-019>022-104-201500-
New Jersey

CITY           SKY/WX    TMP DP  RH WIND       PRES   REMARKS
Newark/Liberty PTSUNNY   91  74  57 W6        29.85F HX 100
Teterboro      FAIR      91  74  57 VRB6      29.84F HX 100
Caldwell       FAIR      91  73  55 W7        29.87F HX  99
Somerville     FAIR      87  75  67 VRB5      29.86F HX  96
Linden         FAIR      90  73  57 CALM      29.86F HX  98
Perth Amboy      N/A     86 N/A N/A W8          N/A
Sussex         FAIR      86  74  67 VRB5      29.88F HX  94
Andover          N/A     85  74  69 CALM      29.90F HX  92
Trenton        FAIR      87  73  62 NW6       29.89S HX  94
Millville      FAIR      90  75  61 NW7       29.90S HX 100
Atlantic City  FAIR      91  74  57 NW6       29.89F HX 100
Wrightstown    FAIR      90  73  57 W8        29.88S HX  98
Toms River     FAIR      91  78  65 VRB5      29.89F HX 106
Belmar         FAIR      90  76  63 W6        29.89F HX 101
$$

Share this post


Link to post
Share on other sites
Just now, Rjay said:
CITY           SKY/WX    TMP DP  RH WIND       PRES   REMARKS
Central Park   FAIR      87  73  62 MISG        N/A  HX  94
Bronx Lehman C   N/A     90  73  58 W5          N/A  HX  98
LaGuardia Arpt PTSUNNY   90  72  55 NW5       29.84F HX  97
Queens College   N/A     90  73  58 W6          N/A  HX  98
Kennedy Intl   FAIR      90  78  68 SW10      29.86F HX 104
Breezy Point     N/A     82 N/A N/A SW6         N/A
Brooklyn Coll    N/A     90  73  58 W6          N/A  HX  98
Staten Island    N/A     90  73  58 SW3         N/A  HX  98
Newark/Liberty PTSUNNY   91  74  57 W6        29.85F HX 100
Teterboro      FAIR      91  74  57 VRB6      29.84F HX 100
$$

NYZ177-179-078>081-201500-
Long Island New York

CITY           SKY/WX    TMP DP  RH WIND       PRES   REMARKS
Jones Beach      N/A     81 N/A N/A W8          N/A
Wantagh          N/A     90  75  62 W7          N/A  HX 100
Hempstead        N/A     90  75  62 NE1       29.89F HX 100
Matinecock Pt    N/A     84 N/A N/A W6          N/A
Farmingdale    FAIR      88  73  61 W10       29.85F HX  95
MacArthur/ISP  PTSUNNY   90  75  61 NW8       29.85F HX 100
Stony Brook      N/A     84  73  70 W6          N/A  HX  91
Shirley        FAIR      89  73  59 W8        29.85F HX  97
Mt Sinai Harb    N/A    N/A N/A N/A W6          N/A
Westhampton    FAIR      88  74  63 W10       29.86F HX  96
East Hampton   FAIR      86  73  64 W6        29.84F HX  93
Southold         N/A     84  72  65 W6          N/A
Montauk          N/A     84  74  71 W6        29.85F HX  91
$$

NYZ052-065-067-201500-
Hudson Valley

CITY           SKY/WX    TMP DP  RH WIND       PRES   REMARKS
White Plains   FAIR      86  73  65 NW8       29.86F HX  93
Larchmont Harb   N/A     84 N/A N/A W5          N/A
Croton On Huds   N/A     88 N/A N/A NW5         N/A
Somers           N/A     86  73  66 W3          N/A  HX  93
Brewster         N/A     84  73  70 NW5         N/A  HX  91
Newburgh       SUNNY     84  75  74 W7        29.87F HX  92
Montgomery     FAIR      85  73  67 SW7       29.85F HX  91
Otisville        N/A     84  72  65 W6          N/A
Warwick          N/A     84  75  74 W7          N/A  HX  92
Suffern          N/A     86  73  66 W3          N/A  HX  93
Poughkeepsie   FAIR      86  73  65 SW6       29.83F HX  93
Albany         PTSUNNY   86  74  67 VRB6      29.84F HX  94
$$

NJZ001-105-106-008-010-013-015-019>022-104-201500-
New Jersey

CITY           SKY/WX    TMP DP  RH WIND       PRES   REMARKS
Newark/Liberty PTSUNNY   91  74  57 W6        29.85F HX 100
Teterboro      FAIR      91  74  57 VRB6      29.84F HX 100
Caldwell       FAIR      91  73  55 W7        29.87F HX  99
Somerville     FAIR      87  75  67 VRB5      29.86F HX  96
Linden         FAIR      90  73  57 CALM      29.86F HX  98
Perth Amboy      N/A     86 N/A N/A W8          N/A
Sussex         FAIR      86  74  67 VRB5      29.88F HX  94
Andover          N/A     85  74  69 CALM      29.90F HX  92
Trenton        FAIR      87  73  62 NW6       29.89S HX  94
Millville      FAIR      90  75  61 NW7       29.90S HX 100
Atlantic City  FAIR      91  74  57 NW6       29.89F HX 100
Wrightstown    FAIR      90  73  57 W8        29.88S HX  98
Toms River     FAIR      91  78  65 VRB5      29.89F HX 106
Belmar         FAIR      90  76  63 W6        29.89F HX 101
$$

Link?

Share this post


Link to post
Share on other sites
Just now, tdp146 said:

87/77/100. Cool spot B)

Lol.  Well I'm usually never the warm spot.  

Share this post


Link to post
Share on other sites
9 minutes ago, psv88 said:

Even FRG is 88 lol. As is westhampton

I’m up to 87.3. No worries here. 

Share this post


Link to post
Share on other sites
21 minutes ago, Rjay said:

I've noticed over the years it's 9am here.   In those cases it's usually around 100 by noon/1.  Then the seabreeze kicks in.   

 

Enhanced heating appears to occur immediately in advance of sea breeze fronts. E.g., see current temperatures 92-93F at coastal towns on the NJ shore. 

https://www.njweather.org/maps/nj-statewide-air-temperatureshttps://www.njweather.org/maps/nj-statewide-air-temperatures

  • Like 2

Share this post


Link to post
Share on other sites
Just now, Isotherm said:

 

Enhanced compressional heating appears to occur immediately in advance of sea breeze fronts. E.g., see current temperatures 92-93F at coastal towns on the NJ shore.

https://www.njweather.org/maps/nj-statewide-air-temperatureshttps://www.njweather.org/maps/nj-statewide-air-temperatures

Interesting Tom. Could explain why north shore can roast on marginal sea breeze days

Share this post


Link to post
Share on other sites
14 minutes ago, dmillz25 said:

Link?

81 and 82 at the long island beaches, you would think dews are equal if they were reporting

Share this post


Link to post
Share on other sites

Love this section from Upton's AFD. Nice explanation of capped. 

Expecting mostly dry weather today but mesoscale models depict a
departure from this picture with isolated to widely scattered
shower and thunderstorm activity this afternoon. Model soundings
still appear to be capped in the mid to upper levels and with
500mb heights still mostly near and slightly above 590dm, only
went with slight chance of showers and thunderstorms. The POPs
reach near 20 percent, timed to when a subtle shortwave with
positive vorticity advection approaches closer to the region. In
addition, with all the heat, the instability will be very high
as well, with surface CAPE potentially reaching 2500 to 4000
J/kg. So any less cap aloft and any more forcing aloft, could
easily generate a quick shower or thunderstorm given the highly
buoyant air.

Share this post


Link to post
Share on other sites
28 minutes ago, sferic said:

Why do I get the feeling there will be blackouts in some areas today ?

It helps it's not a weekday with office bldgs  filled with ppl working and running ac.

Share this post


Link to post
Share on other sites
4 minutes ago, Rjay said:

Wantagh mesonet is down to 88 on a south wind. 

My neighbor placed his oscillating sprinkler next to the fence and it’s spraying my pws. Incredible. Never happened before lol. 

  • Haha 1

Share this post


Link to post
Share on other sites
14 minutes ago, hudsonvalley21 said:

Love this section from Upton's AFD. Nice explanation of capped. 

indeed. 700 temps are locally cooler over PA, NJ up to SW CT, which is why 700-500 lapse rates aren't as "good" as elsewhere. these cooler 700 temps will be where the cap is weakest, but there will be negating factors in this area due to the mid- and high clouds.

image.thumb.png.a32729d0caef7572b3d2935509382d1d.png

Share this post


Link to post
Share on other sites
6 minutes ago, dWave said:

It helps it's not a weekday with office bldgs  filled with ppl working and running ac.

I work in a major skyscraper and our AC was turned down yesterday because of a request from the city. It sucked for me but hopefully there are enough power saving steps being taken by big consumers to minimize blackout chances. 

Share this post


Link to post
Share on other sites
6 minutes ago, psv88 said:

My neighbor placed his oscillating sprinkler next to the fence and it’s spraying my pws. Incredible. Never happened before lol. 

That'll get you some evaporational cooling on your temps :lol:

Share this post


Link to post
Share on other sites

Join the conversation

You can post now and register later. If you have an account, sign in now to post with your account.

Guest
Reply to this topic...

×   Pasted as rich text.   Paste as plain text instead

  Only 75 emoji are allowed.

×   Your link has been automatically embedded.   Display as a link instead

×   Your previous content has been restored.   Clear editor

×   You cannot paste images directly. Upload or insert images from URL.

Loading...

  • Recently Browsing   0 members

    No registered users viewing this page.